Location: Newark
(50.0306°N, 2.3272°E)
Time: 09:45:41
(UTC+00:00)

Transit 2A Rocket - Pass Details

Date: 11 December 2019
Orbit: 593 x 910 km, 66.7° (Epoch: 17 January)

Event Time Altitude Azimuth Distance (km) Brightness Sun altitude
Rises 15:31:38 0° 188° (S) 2,963 8.9 1.3°
Reaches altitude 10° 15:34:08 10° 179° (S) 2,015 7.8 1.0°
Maximum altitude 15:38:08 32° 116° (ESE) 1,059 5.6 0.5°
Drops below altitude 10° 15:41:59 10° 53° (NE) 1,945 6.5 0.0°
Enters shadow 15:44:18 - 44° (NE) 2,816 7.3 -0.3°
Sets 15:44:22 0° 44° (NE) 2,843 - -0.3°
